UmKA 1 (RS40S)
1 57172U 23091G   26057.83807960  .00007631  00000-0  36265-3 0  9990
2 57172  97.5209 116.9890 0014277 140.2996 219.9286 15.19407185147248
CubeBel-2 (EU11S)
1 57175U 23091K   26057.82509578  .00013405  00000-0  51734-3 0  9990
2 57175  97.5204 120.2073 0011589 140.2892 219.9197 15.26349777147459
RS-38S
1 57189U 23091Z   26057.85911904  .00019302  00000-0  62020-3 0  9990
2 57189  97.5225 125.3728 0009129 105.2045 255.0206 15.32281505147776
SONATE-2
1 59112U 24043Q   26057.81952126  .00040017  00000-0  70288-3 0  9995
2 59112  97.5380 202.2353 0007865 245.8138 114.2292 15.50381959110746
MO-122
1 60209U 24125G   26057.81103661  .00047076  00000-0  76531-3 0  9996
2 60209  97.2477 273.5475 0011196 266.0319  93.9654 15.52486932 92386
GRBBeta
1 60237U 24128C   26057.48399729  .00005369  00000-0  37350-3 0  9990
2 60237  61.9887 244.3977 0052625 112.0385 248.6309 15.05625834 89597
Curium One
1 60242U 24128H   26057.50076863  .00011403  00000-0  67841-3 0  9994
2 60242  61.9774 237.2623 0052242 108.9942 251.6824 15.10526304 89724
ROBUSTA-3A
1 60243U 24128J   26057.47275809  .00007953  00000-0  48681-3 0  9998
2 60243  61.9851 239.2458 0053092 106.2840 254.4103 15.09797663 89694
CatSat
1 60246U 24125J   26057.63476470  .00049280  00000-0  94223-3 0  9995
2 60246  97.2232 269.5407 0027677 229.5617 130.3219 15.47510217 90235
HYPERVIEW-1G (RS66S)
1 61772U 24199AP  26057.83191506  .00064484  00000-0  91006-3 0  9996
2 61772  97.3117 293.6324 0007773 333.6979  26.3880 15.56342201117416
AO-123
1 61781U 24199AY  26057.85237785  .00010771  00000-0  33076-3 0  9991
2 61781  97.3179 287.5388 0013951 351.5760   8.5247 15.33804830117008
JINJUSat 1B
1 63210U 25052A   26057.67575427  .00018667  00000-0  65013-3 0  9995
2 63210  97.4140 314.4995 0005314 106.0302 254.1524 15.29705773 53185
NUSHSAT 1
1 63211U 25052B   26057.67100392  .00023331  00000-0  77213-3 0  9990
2 63211  97.4119 314.7499 0005201 107.2296 252.9515 15.31316322 53204
TEVEL2-4
1 63213U 25052D   26057.25365336  .00020626  00000-0  70357-3 0  9993
2 63213  97.4040 313.7136 0004208 117.0177 243.1493 15.30367397 53124
TEVEL2-5
1 63214U 25052E   26057.65607750  .00021086  00000-0  72132-3 0  9991
2 63214  97.4039 314.0899 0004156 116.2067 243.9601 15.30270147 53185
TEVEL2-6
1 63215U 25052F   26057.27325134  .00020285  00000-0  69533-3 0  9994
2 63215  97.4040 313.6942 0004232 117.8473 242.3197 15.30211150 53121
TEVEL2-1
1 63217U 25052H   26057.66088152  .00021149  00000-0  73342-3 0  9998
2 63217  97.4017 313.8234 0003999 125.6031 234.5583 15.29824617 53172
TEVEL2-3
1 63218U 25052J   26057.46248558  .00019995  00000-0  69316-3 0  9997
2 63218  97.4020 313.6368 0003981 126.9823 233.1782 15.29847638 53148
TEVEL2-2
1 63219U 25052K   26057.13827925  .00017192  00000-0  59744-3 0  9994
2 63219  97.4007 313.3048 0003926 130.0874 230.0711 15.29799969 53092
TEVEL2-9
1 63237U 25052AD  26057.24484451  .00018650  00000-0  68131-3 0  9999
2 63237  97.4079 312.9995 0006724 158.0739 202.0789 15.28133256 53067
TEVEL2-7
1 63238U 25052AE  26057.26756888  .00018004  00000-0  66200-3 0  9996
2 63238  97.4079 312.9777 0006880 158.4185 201.7346 15.27925642 53060
TEVEL2-8
1 63239U 25052AF  26057.66737023  .00018635  00000-0  68518-3 0  9995
2 63239  97.4082 313.3560 0006884 158.0569 202.0966 15.27918597 53126
HYDRA-W
1 63490U 25052BL  26057.67669920  .00167187  00000-0  21433-2 0  9996
2 63490  97.3969 318.3702 0008130 126.7923 233.4080 15.58558002 53471
HADES-ICM (SO-125)
1 63492U 25052BN  26057.82347081  .00126493  00000-0  19561-2 0  9990
2 63492  97.3981 317.9013 0007521 134.0196 226.1678 15.53605852 53455
RSP-03
1 65732U 98067XL  26047.27951905  .10199253  12460-4  79249-3 0  9991
2 65732  51.6061 154.7117 0006246 319.9198  40.1367 16.39378610 23558
BOTAN
1 65942U 98067XP  26057.40902330  .01192930  80304-3  17551-2 0  9991
2 65942  51.6115 109.1805 0009209  21.6689 338.4711 16.04464389 21806
CEVROSAT1
1 66309U 25248S   26057.18670585  .00004548  00000-0  22576-3 0  9991
2 66309  45.4063 356.3438 0002457 163.2061 196.8907 15.19116226 17627
SPIRONE
1 66657U 25274H   26057.75995575  .00003280  00000-0  32060-3 0  9999
2 66657  97.7432 348.7073 0013170  28.9391 331.2556 14.92988791 13748
K-HERO
1 66660U 25274L   26057.79676640  .00002532  00000-0  24582-3 0  9995
2 66660  97.7435 348.8206 0015018  31.4316 328.7798 14.93448243 13757
SNUGLITE-III DURI
1 66661U 25274M   26057.32030176  .00002052  00000-0  19967-3 0  9991
2 66661  97.7430 348.3650 0015747  33.6057 326.6158 14.93541819 13688
SilverSat
1 66909U 98067XV  26057.57034569  .00158893  00000-0  13838-2 0  9998
2 66909  51.6257 121.6500 0004960  15.1829 344.9315 15.67979146 13444
SAKHACUBE-CHOLBON
1 67290U 25313AU  26057.77452501  .00011600  00000-0  50116-3 0  9993
2 67290  97.4029 134.3261 0010031  32.5428 327.6424 15.22597623  9162
QMR-KWT
1 67291U 25313AV  26057.76631457  .00016722  00000-0  71076-3 0  9990
2 67291  97.4029 134.3367 0009648  31.1841 328.9967 15.23071184  9162
IO-86
1 40931U          25360.30710720  .00000000  00000-0  12800-3 0    00
2 40931   6.0006 332.5373 0012733 338.8432   8.1437 14.79075515    01
